"read_dt","SO2 (ppb)","flags","PMT voltage (V)","lamp voltage (V)","lamp intensity (Hz)","internal temp (C)","react chamber temp (C)","sample flow (l/min)","pres (mmHg)","SO2 bkg (ppb)","SO2 coefficient"
2014-05-21 00:00:00,1683E-3,5C000000,-0724,0857,12020,033.0,045.7,0.485,739.0,01.18,0.508
2014-05-21 00:01:00,1702E-3,5C000000,-0724,0858,11975,033.0,045.7,0.485,739.0,01.18,0.508
2014-05-21 00:02:00,1892E-3,5C000000,-0724,0859,11968,033.0,045.7,0.485,739.0,01.18,0.508
2014-05-21 00:03:00,1803E-3,5C000000,-0724,0857,11863,033.0,045.7,0.484,739.1,01.18,0.508
2014-05-21 00:04:00,1777E-3,5C000000,-0724,0857,11903,033.0,045.6,0.485,739.1,01.18,0.508
2014-05-21 00:05:00,1913E-3,5C000000,-0724,0857,12042,033.1,045.7,0.484,739.1,01.18,0.508
2014-05-21 00:06:00,1737E-3,5C000000,-0724,0857,11928,033.1,045.7,0.485,739.0,01.18,0.508
2014-05-21 00:07:00,1643E-3,5C000000,-0724,0858,11916,033.1,045.6,0.484,739.0,01.18,0.508
2014-05-21 00:08:00,1693E-3,5C000000,-0724,0858,11971,033.1,045.7,0.485,739.0,01.18,0.508
2014-05-21 00:09:00,1826E-3,5C000000,-0724,0857,11902,033.1,045.7,0.484,738.9,01.18,0.508
2014-05-21 00:10:00,1764E-3,5C000000,-0724,0857,12012,033.1,045.7,0.485,739.0,01.18,0.508
2014-05-21 00:11:00,1684E-3,5C000000,-0724,0857,11769,033.1,045.7,0.484,739.0,01.18,0.508
2014-05-21 00:12:00,1676E-3,5C000000,-0724,0856,11865,033.1,045.7,0.485,738.9,01.18,0.508
2014-05-21 00:13:00,1663E-3,5C000000,-0724,0857,11812,033.1,045.7,0.484,739.0,01.18,0.508
2014-05-21 00:14:00,1728E-3,5C000000,-0724,0857,11803,033.1,045.7,0.485,739.0,01.18,0.508
2014-05-21 00:15:00,1816E-3,5C000000,-0724,0857,12002,033.2,045.7,0.484,739.0,01.18,0.508
2014-05-21 00:16:00,1774E-3,5C000000,-0724,0857,12005,033.2,045.7,0.485,738.9,01.18,0.508
2014-05-21 00:17:00,1720E-3,5C000000,-0724,0858,11989,033.2,045.7,0.484,738.9,01.18,0.508
2014-05-21 00:18:00,1886E-3,5C000000,-0724,0857,11882,033.1,045.7,0.485,738.9,01.18,0.508
2014-05-21 00:19:00,1805E-3,5C000000,-0724,0856,11866,033.2,045.7,0.485,738.9,01.18,0.508
2014-05-21 00:20:00,1795E-3,5C000000,-0724,0857,11792,033.2,045.7,0.484,738.9,01.18,0.508
2014-05-21 00:21:00,1730E-3,5C000000,-0724,0857,12124,033.2,045.7,0.485,739.0,01.18,0.508
2014-05-21 00:22:00,1748E-3,5C000000,-0724,0857,12105,033.2,045.7,0.484,738.9,01.18,0.508
2014-05-21 00:23:00,1798E-3,5C000000,-0724,0856,11816,033.2,045.7,0.485,738.9,01.18,0.508
2014-05-21 00:24:00,1770E-3,5C000000,-0724,0856,11945,033.2,045.7,0.484,739.0,01.18,0.508
2014-05-21 00:25:00,1731E-3,5C000000,-0724,0857,11987,033.2,045.7,0.485,739.0,01.18,0.508
2014-05-21 00:26:00,1811E-3,5C000000,-0724,0857,12000,033.2,045.7,0.484,739.0,01.18,0.508
2014-05-21 00:27:00,1703E-3,5C000000,-0724,0857,11876,033.2,045.7,0.485,739.0,01.18,0.508
2014-05-21 00:28:00,1740E-3,5C000000,-0724,0856,11938,033.2,045.7,0.484,739.0,01.18,0.508
2014-05-21 00:29:00,1822E-3,5C000000,-0724,0858,11816,033.3,045.7,0.485,739.0,01.18,0.508
2014-05-21 00:30:00,1780E-3,5C000000,-0724,0857,11867,033.3,045.7,0.484,739.0,01.18,0.508
2014-05-21 00:31:00,1703E-3,5C000000,-0724,0857,11867,033.3,045.7,0.485,739.0,01.18,0.508
2014-05-21 00:32:00,1665E-3,5C000000,-0724,0857,12083,033.3,045.7,0.484,739.0,01.18,0.508
2014-05-21 00:33:00,1813E-3,5C000000,-0724,0858,11930,033.3,045.7,0.485,738.9,01.18,0.508
2014-05-21 00:34:00,1761E-3,5C000000,-0724,0857,11735,033.3,045.7,0.484,739.0,01.18,0.508
2014-05-21 00:35:00,1753E-3,5C000000,-0724,0857,11787,033.3,045.7,0.485,738.9,01.18,0.508
2014-05-21 00:36:00,1695E-3,5C000000,-0724,0856,12081,033.3,045.7,0.484,738.9,01.18,0.508
2014-05-21 00:37:00,1837E-3,5C000000,-0724,0857,11997,033.3,045.7,0.485,738.9,01.18,0.508
2014-05-21 00:38:00,1927E-3,5C000000,-0724,0857,11737,033.3,045.7,0.484,738.9,01.18,0.508
2014-05-21 00:39:00,1825E-3,5C000000,-0724,0856,11900,033.3,045.7,0.484,738.9,01.18,0.508
2014-05-21 00:40:00,1748E-3,5C000000,-0724,0858,12025,033.3,045.7,0.484,738.9,01.18,0.508
2014-05-21 00:41:00,1796E-3,5C000000,-0724,0856,11897,033.3,045.7,0.484,738.9,01.18,0.508
2014-05-21 00:42:00,1741E-3,5C000000,-0724,0857,11674,033.3,045.7,0.484,738.9,01.18,0.508
2014-05-21 00:43:00,1750E-3,5C000000,-0724,0857,11799,033.4,045.6,0.484,738.9,01.18,0.508
2014-05-21 00:44:00,1805E-3,5C000000,-0724,0857,11759,033.4,045.7,0.484,738.9,01.18,0.508
2014-05-21 00:45:00,1779E-3,5C000000,-0724,0858,11994,033.4,045.7,0.484,738.9,01.18,0.508
2014-05-21 00:46:00,1785E-3,5C000000,-0724,0858,11906,033.4,045.7,0.484,738.9,01.18,0.508
2014-05-21 00:47:00,1658E-3,5C000000,-0724,0857,11927,033.4,045.7,0.484,739.0,01.18,0.508
2014-05-21 00:48:00,1720E-3,5C000000,-0724,0856,11960,033.4,045.7,0.484,739.0,01.18,0.508
2014-05-21 00:49:00,1596E-3,5C000000,-0724,0857,11876,033.4,045.7,0.484,739.0,01.18,0.508
2014-05-21 00:50:00,1721E-3,5C000000,-0724,0857,11868,033.4,045.7,0.484,738.9,01.18,0.508
2014-05-21 00:51:00,1690E-3,5C000000,-0724,0857,11911,033.4,045.7,0.484,738.9,01.18,0.508
2014-05-21 00:52:00,1632E-3,5C000000,-0724,0858,12044,033.4,045.7,0.484,738.9,01.18,0.508
2014-05-21 00:53:00,1851E-3,5C000000,-0724,0858,12039,033.4,045.7,0.484,738.9,01.18,0.508
2014-05-21 00:54:00,1765E-3,5C000000,-0724,0857,11997,033.4,045.7,0.484,738.9,01.18,0.508
2014-05-21 00:55:00,1702E-3,5C000000,-0724,0856,12009,033.5,045.7,0.484,739.0,01.18,0.508
2014-05-21 00:56:00,1788E-3,5C000000,-0724,0857,11925,033.4,045.7,0.484,739.0,01.18,0.508
2014-05-21 00:57:00,1837E-3,5C000000,-0724,0857,11969,033.5,045.7,0.484,739.0,01.18,0.508
2014-05-21 00:58:00,1673E-3,5C000000,-0724,0856,12003,033.5,045.7,0.484,738.9,01.18,0.508
2014-05-21 00:59:00,1743E-3,5C000000,-0724,0858,11962,033.5,045.7,0.484,738.9,01.18,0.508
2014-05-21 01:00:00,1828E-3,5C000000,-0724,0858,12027,033.5,045.7,0.484,738.9,01.18,0.508
2014-05-21 01:01:00,1751E-3,5C000000,-0724,0859,11915,033.5,045.7,0.484,738.9,01.18,0.508
2014-05-21 01:02:00,1736E-3,5C000000,-0724,0857,11956,033.5,045.7,0.484,738.9,01.18,0.508
2014-05-21 01:03:00,1683E-3,5C000000,-0724,0857,11977,033.5,045.7,0.484,738.9,01.18,0.508
2014-05-21 01:04:00,1755E-3,5C000000,-0724,0858,11849,033.5,045.7,0.484,738.9,01.18,0.508
2014-05-21 01:05:00,1831E-3,5C000000,-0724,0857,11895,033.5,045.7,0.484,738.9,01.18,0.508
2014-05-21 01:06:00,1775E-3,5C000000,-0724,0857,12026,033.5,045.7,0.484,738.9,01.18,0.508
2014-05-21 01:07:00,1623E-3,5C000000,-0724,0857,11930,033.5,045.7,0.484,738.9,01.18,0.508
2014-05-21 01:08:00,1700E-3,5C000000,-0724,0858,12006,033.6,045.7,0.483,738.9,01.18,0.508
2014-05-21 01:09:00,1809E-3,5C000000,-0724,0857,11903,033.6,045.7,0.484,738.9,01.18,0.508
2014-05-21 01:10:00,1780E-3,5C000000,-0724,0857,12014,033.6,045.7,0.483,738.9,01.18,0.508
2014-05-21 01:11:00,1786E-3,5C000000,-0724,0858,11895,033.6,045.7,0.484,739.0,01.18,0.508
2014-05-21 01:12:00,1805E-3,5C000000,-0724,0857,11842,033.6,045.7,0.484,739.0,01.18,0.508
2014-05-21 01:13:00,1803E-3,5C000000,-0724,0857,11798,033.6,045.7,0.484,739.0,01.18,0.508
2014-05-21 01:14:00,1826E-3,5C000000,-0724,0857,11839,033.6,045.7,0.483,739.0,01.18,0.508
2014-05-21 01:15:00,1777E-3,5C000000,-0724,0857,11998,033.6,045.7,0.484,739.0,01.18,0.508
2014-05-21 01:16:00,1897E-3,5C000000,-0724,0857,11964,033.6,045.7,0.484,739.0,01.18,0.508
2014-05-21 01:17:00,1918E-3,5C000000,-0724,0857,11889,033.6,045.7,0.483,739.0,01.18,0.508
2014-05-21 01:18:00,1785E-3,5C000000,-0724,0857,11834,033.6,045.7,0.484,739.0,01.18,0.508
2014-05-21 01:19:00,1765E-3,5C000000,-0724,0858,11865,033.7,045.7,0.483,739.0,01.18,0.508
2014-05-21 01:20:00,1633E-3,5C000000,-0724,0857,11795,033.7,045.7,0.484,739.0,01.18,0.508
2014-05-21 01:21:00,1637E-3,5C000000,-0724,0858,11654,033.7,045.7,0.483,739.0,01.18,0.508
2014-05-21 01:22:00,1807E-3,5C000000,-0724,0857,12025,033.7,045.7,0.484,739.0,01.18,0.508
2014-05-21 01:23:00,1695E-3,5C000000,-0724,0858,11838,033.7,045.7,0.484,739.0,01.18,0.508
2014-05-21 01:24:00,1702E-3,5C000000,-0724,0858,11917,033.7,045.7,0.483,739.0,01.18,0.508
2014-05-21 01:25:00,1839E-3,5C000000,-0724,0859,11929,033.7,045.7,0.484,739.0,01.18,0.508
2014-05-21 01:26:00,1827E-3,5C000000,-0724,0858,11978,033.7,045.7,0.483,739.0,01.18,0.508
2014-05-21 01:27:00,1847E-3,5C000000,-0724,0858,11844,033.7,045.7,0.483,739.0,01.18,0.508
2014-05-21 01:28:00,1809E-3,5C000000,-0724,0858,11728,033.7,045.7,0.484,739.0,01.18,0.508
2014-05-21 01:29:00,1813E-3,5C000000,-0724,0858,11907,033.7,045.7,0.483,739.0,01.18,0.508
2014-05-21 01:30:00,1651E-3,5C000000,-0724,0858,11886,033.7,045.7,0.484,739.0,01.18,0.508
2014-05-21 01:31:00,1698E-3,5C000000,-0724,0856,12034,033.7,045.7,0.484,739.0,01.18,0.508
2014-05-21 01:32:00,1683E-3,5C000000,-0724,0858,11811,033.8,045.7,0.483,739.0,01.18,0.508
2014-05-21 01:33:00,1882E-3,5C000000,-0724,0858,11811,033.8,045.7,0.484,739.0,01.18,0.508
2014-05-21 01:34:00,1822E-3,5C000000,-0724,0857,12129,033.8,045.7,0.483,739.0,01.18,0.508
2014-05-21 01:35:00,1784E-3,5C000000,-0724,0859,11830,033.8,045.7,0.483,739.0,01.18,0.508
2014-05-21 01:36:00,1788E-3,5C000000,-0724,0857,11710,033.8,045.7,0.484,739.0,01.18,0.508
2014-05-21 01:37:00,1725E-3,5C000000,-0724,0858,11931,033.8,045.7,0.483,739.0,01.18,0.508
2014-05-21 01:38:00,1681E-3,5C000000,-0724,0858,11841,033.8,045.7,0.483,739.0,01.18,0.508
2014-05-21 01:39:00,1682E-3,5C000000,-0724,0857,11955,033.8,045.7,0.483,739.0,01.18,0.508
2014-05-21 01:40:00,1808E-3,5C000000,-0724,0857,11924,033.8,045.7,0.483,739.0,01.18,0.508
2014-05-21 01:41:00,1733E-3,5C000000,-0724,0858,11906,033.8,045.7,0.484,739.0,01.18,0.508
2014-05-21 01:42:00,1791E-3,5C000000,-0724,0858,11729,033.8,045.7,0.483,739.0,01.18,0.508
2014-05-21 01:43:00,1857E-3,5C000000,-0724,0858,11777,033.8,045.7,0.483,739.0,01.18,0.508
2014-05-21 01:44:00,1737E-3,5C000000,-0724,0857,11952,033.8,045.7,0.483,739.0,01.18,0.508
2014-05-21 01:45:00,1783E-3,5C000000,-0724,0858,11751,033.8,045.7,0.483,739.0,01.18,0.508
2014-05-21 01:46:00,1878E-3,5C000000,-0724,0857,11974,033.8,045.7,0.483,739.0,01.18,0.508
2014-05-21 01:47:00,1754E-3,5C000000,-0724,0857,11864,033.8,045.7,0.483,739.0,01.18,0.508
2014-05-21 01:48:00,1703E-3,5C000000,-0724,0858,11863,033.9,045.7,0.484,739.0,01.18,0.508
2014-05-21 01:49:00,1703E-3,5C000000,-0724,0857,11778,033.9,045.7,0.483,739.0,01.18,0.508
2014-05-21 01:50:00,1738E-3,5C000000,-0724,0857,11889,033.9,045.7,0.483,739.0,01.18,0.508
2014-05-21 01:51:00,1780E-3,5C000000,-0724,0857,11965,033.9,045.7,0.483,739.0,01.18,0.508
2014-05-21 01:52:00,1749E-3,5C000000,-0724,0858,11933,033.9,045.7,0.483,739.0,01.18,0.508
2014-05-21 01:53:00,1810E-3,5C000000,-0724,0857,11897,033.9,045.7,0.483,739.0,01.18,0.508
2014-05-21 01:54:00,1604E-3,5C000000,-0724,0858,11747,033.9,045.7,0.483,739.0,01.18,0.508
2014-05-21 01:55:00,1820E-3,5C000000,-0724,0858,11948,033.9,045.7,0.483,739.0,01.18,0.508
2014-05-21 01:56:00,1840E-3,5C000000,-0724,0857,11993,033.9,045.7,0.483,739.0,01.18,0.508
2014-05-21 01:57:00,1786E-3,5C000000,-0724,0857,11823,033.9,045.7,0.483,739.0,01.18,0.508
2014-05-21 01:58:00,1836E-3,5C000000,-0724,0858,12042,033.9,045.7,0.483,739.0,01.18,0.508
2014-05-21 01:59:00,1786E-3,5C000000,-0724,0858,11739,034.0,045.7,0.483,739.0,01.18,0.508
2014-05-21 02:00:00,1802E-3,5C000000,-0724,0857,11802,034.0,045.7,0.483,739.0,01.18,0.508
2014-05-21 02:01:00,1895E-3,5C000000,-0724,0858,11814,034.0,045.7,0.483,739.0,01.18,0.508
2014-05-21 02:02:00,1823E-3,5C000000,-0724,0857,11812,034.0,045.7,0.483,739.0,01.18,0.508
2014-05-21 02:03:00,1697E-3,5C000000,-0724,0857,11914,034.0,045.7,0.483,739.0,01.18,0.508
2014-05-21 02:04:00,1677E-3,5C000000,-0724,0858,11898,034.0,045.7,0.483,739.0,01.18,0.508
2014-05-21 02:05:00,1842E-3,5C000000,-0724,0857,11934,034.0,045.7,0.483,739.0,01.18,0.508
2014-05-21 02:06:00,1705E-3,5C000000,-0724,0857,11814,034.0,045.7,0.483,739.0,01.18,0.508
2014-05-21 02:07:00,1796E-3,5C000000,-0724,0858,11835,034.0,045.7,0.483,739.0,01.18,0.508
2014-05-21 02:08:00,1756E-3,5C000000,-0724,0858,12121,034.0,045.7,0.483,739.0,01.18,0.508
2014-05-21 02:09:00,1817E-3,5C000000,-0724,0856,11899,034.0,045.7,0.483,739.0,01.18,0.508
2014-05-21 02:10:00,1779E-3,5C000000,-0724,0858,11759,034.0,045.7,0.483,739.0,01.18,0.508
2014-05-21 02:11:00,1747E-3,5C000000,-0724,0858,11914,034.1,045.7,0.483,739.0,01.18,0.508
2014-05-21 02:12:00,1780E-3,5C000000,-0724,0858,11916,034.1,045.7,0.483,739.0,01.18,0.508
2014-05-21 02:13:00,1773E-3,5C000000,-0724,0857,11845,034.1,045.7,0.483,739.0,01.18,0.508
2014-05-21 02:14:00,1716E-3,5C000000,-0724,0858,11987,034.1,045.7,0.483,739.0,01.18,0.508
2014-05-21 02:15:00,1703E-3,5C000000,-0724,0858,12050,034.1,045.7,0.483,739.0,01.18,0.508
2014-05-21 02:16:00,1940E-3,5C000000,-0724,0857,11845,034.1,045.7,0.483,739.0,01.18,0.508
2014-05-21 02:17:00,1865E-3,5C000000,-0724,0858,11915,034.1,045.7,0.483,739.0,01.18,0.508
2014-05-21 02:18:00,1951E-3,5C000000,-0724,0857,12018,034.1,045.7,0.482,739.0,01.18,0.508
2014-05-21 02:19:00,1880E-3,5C000000,-0724,0858,11971,034.1,045.7,0.483,739.0,01.18,0.508
2014-05-21 02:20:00,1729E-3,5C000000,-0724,0857,11869,034.2,045.7,0.483,739.0,01.18,0.508
2014-05-21 02:21:00,1791E-3,5C000000,-0724,0857,11922,034.2,045.7,0.483,739.0,01.18,0.508
2014-05-21 02:22:00,1645E-3,5C000000,-0724,0858,11892,034.2,045.7,0.482,739.0,01.18,0.508
2014-05-21 02:23:00,1671E-3,5C000000,-0724,0858,11958,034.2,045.7,0.482,739.0,01.18,0.508
2014-05-21 02:24:00,1684E-3,5C000000,-0724,0858,11982,034.2,045.7,0.483,739.0,01.18,0.508
2014-05-21 02:25:00,1772E-3,5C000000,-0724,0858,11818,034.2,045.7,0.483,739.0,01.18,0.508
2014-05-21 02:26:00,1821E-3,5C000000,-0724,0858,11809,034.2,045.7,0.482,739.0,01.18,0.508
2014-05-21 02:27:00,1702E-3,5C000000,-0724,0859,11884,034.2,045.7,0.482,739.0,01.18,0.508
2014-05-21 02:28:00,1775E-3,5C000000,-0724,0857,11826,034.2,045.7,0.483,739.0,01.18,0.508
2014-05-21 02:29:00,1828E-3,5C000000,-0724,0858,11756,034.2,045.7,0.483,739.0,01.18,0.508
2014-05-21 02:30:00,1869E-3,5C000000,-0724,0858,11828,034.2,045.7,0.482,739.0,01.18,0.508
2014-05-21 02:31:00,1753E-3,5C000000,-0724,0858,11828,034.3,045.7,0.482,739.0,01.18,0.508
2014-05-21 02:32:00,1685E-3,5C000000,-0724,0857,11850,034.3,045.7,0.483,739.0,01.18,0.508
2014-05-21 02:33:00,1880E-3,5C000000,-0724,0857,11730,034.3,045.7,0.483,739.0,01.18,0.508
2014-05-21 02:34:00,1839E-3,5C000000,-0724,0858,11949,034.3,045.7,0.483,739.0,01.18,0.508
2014-05-21 02:35:00,1823E-3,5C000000,-0724,0858,11859,034.3,045.7,0.483,739.0,01.18,0.508
2014-05-21 02:36:00,1940E-3,5C000000,-0724,0858,11807,034.3,045.7,0.482,739.0,01.18,0.508
2014-05-21 02:37:00,1733E-3,5C000000,-0724,0858,11859,034.3,045.7,0.482,739.0,01.18,0.508
2014-05-21 02:38:00,1735E-3,5C000000,-0724,0858,11963,034.3,045.7,0.482,739.0,01.18,0.508
2014-05-21 02:39:00,1735E-3,5C000000,-0724,0858,11959,034.3,045.7,0.483,739.0,01.18,0.508
2014-05-21 02:40:00,1886E-3,5C000000,-0724,0858,12119,034.3,045.7,0.483,739.0,01.18,0.508
2014-05-21 02:41:00,1807E-3,5C000000,-0724,0859,12026,034.3,045.7,0.483,739.0,01.18,0.508
2014-05-21 02:42:00,1870E-3,5C000000,-0724,0858,11958,034.4,045.7,0.483,739.0,01.18,0.508
2014-05-21 02:43:00,1672E-3,5C000000,-0724,0859,11925,034.4,045.7,0.482,739.0,01.18,0.508
2014-05-21 02:44:00,1706E-3,5C000000,-0724,0858,11815,034.4,045.7,0.482,739.0,01.18,0.508
2014-05-21 02:45:00,1746E-3,5C000000,-0724,0858,12038,034.4,045.7,0.482,739.0,01.18,0.508
2014-05-21 02:46:00,1834E-3,5C000000,-0724,0858,11728,034.4,045.7,0.482,739.0,01.18,0.508
2014-05-21 02:47:00,1846E-3,5C000000,-0724,0858,11890,034.4,045.7,0.482,739.0,01.18,0.508
2014-05-21 02:48:00,1908E-3,5C000000,-0724,0857,11997,034.4,045.7,0.482,738.9,01.18,0.508
2014-05-21 02:49:00,1807E-3,5C000000,-0724,0858,11880,034.4,045.7,0.483,739.0,01.18,0.508
2014-05-21 02:50:00,1759E-3,5C000000,-0724,0858,12042,034.4,045.7,0.483,739.0,01.18,0.508
2014-05-21 02:51:00,1740E-3,5C000000,-0724,0857,12024,034.4,045.7,0.482,739.0,01.18,0.508
2014-05-21 02:52:00,1836E-3,5C000000,-0724,0858,11820,034.4,045.7,0.482,739.0,01.18,0.508
2014-05-21 02:53:00,1727E-3,5C000000,-0724,0858,11740,034.4,045.7,0.482,739.0,01.18,0.508
2014-05-21 02:54:00,1772E-3,5C000000,-0724,0858,11948,034.4,045.7,0.482,739.0,01.18,0.508
2014-05-21 02:55:00,1793E-3,5C000000,-0724,0858,11970,034.5,045.7,0.482,739.0,01.18,0.508
2014-05-21 02:56:00,1766E-3,5C000000,-0724,0858,11907,034.5,045.7,0.482,739.0,01.18,0.508
2014-05-21 02:57:00,1789E-3,5C000000,-0724,0859,12000,034.5,045.7,0.482,739.0,01.18,0.508
2014-05-21 02:58:00,1766E-3,5C000000,-0724,0859,11803,034.5,045.7,0.482,739.0,01.18,0.508
2014-05-21 02:59:00,1767E-3,5C000000,-0724,0858,12020,034.5,045.7,0.482,739.0,01.18,0.508
2014-05-21 03:00:00,1818E-3,5C000000,-0724,0857,12015,034.5,045.7,0.482,739.0,01.18,0.508
2014-05-21 03:01:00,1809E-3,5C000000,-0724,0859,11965,034.5,045.7,0.482,739.0,01.18,0.508
2014-05-21 03:02:00,1899E-3,5C000000,-0724,0858,11946,034.5,045.7,0.482,739.0,01.18,0.508
2014-05-21 03:03:00,1849E-3,5C000000,-0724,0857,11959,034.5,045.7,0.482,739.0,01.18,0.508
2014-05-21 03:04:00,1728E-3,5C000000,-0724,0857,11681,034.5,045.7,0.482,739.0,01.18,0.508
2014-05-21 03:05:00,1700E-3,5C000000,-0724,0858,11918,034.5,045.7,0.482,739.0,01.18,0.508
2014-05-21 03:06:00,1786E-3,5C000000,-0724,0858,11872,034.5,045.7,0.482,739.0,01.18,0.508
2014-05-21 03:07:00,1736E-3,5C000000,-0724,0857,11891,034.5,045.7,0.482,739.0,01.18,0.508
2014-05-21 03:08:00,1781E-3,5C000000,-0724,0858,11847,034.5,045.7,0.482,739.0,01.18,0.508
2014-05-21 03:09:00,1818E-3,5C000000,-0724,0859,11952,034.5,045.7,0.482,739.0,01.18,0.508
2014-05-21 03:10:00,1795E-3,5C000000,-0724,0858,12024,034.5,045.7,0.482,739.0,01.18,0.508
2014-05-21 03:11:00,1802E-3,5C000000,-0724,0859,11850,034.6,045.7,0.482,739.0,01.18,0.508
2014-05-21 03:12:00,1807E-3,5C000000,-0724,0858,12032,034.6,045.7,0.482,739.0,01.18,0.508
2014-05-21 03:13:00,1885E-3,5C000000,-0724,0858,11805,034.6,045.7,0.482,739.0,01.18,0.508
2014-05-21 03:14:00,1906E-3,5C000000,-0724,0858,11880,034.6,045.7,0.482,739.0,01.18,0.508
2014-05-21 03:15:00,1825E-3,5C000000,-0724,0858,11951,034.6,045.7,0.482,739.0,01.18,0.508
2014-05-21 03:16:00,1834E-3,5C000000,-0724,0858,11851,034.6,045.7,0.482,739.1,01.18,0.508
2014-05-21 03:17:00,1792E-3,5C000000,-0724,0858,11922,034.6,045.7,0.482,739.1,01.18,0.508
2014-05-21 03:18:00,1943E-3,5C000000,-0724,0858,11760,034.6,045.7,0.482,739.1,01.18,0.508
2014-05-21 03:19:00,1729E-3,5C000000,-0724,0858,11876,034.6,045.7,0.482,739.1,01.18,0.508
2014-05-21 03:20:00,1658E-3,5C000000,-0724,0857,11781,034.6,045.7,0.482,739.1,01.18,0.508
2014-05-21 03:21:00,1844E-3,5C000000,-0724,0857,12098,034.7,045.7,0.482,739.2,01.18,0.508
2014-05-21 03:22:00,1724E-3,5C000000,-0724,0858,11763,034.7,045.7,0.482,739.1,01.18,0.508
2014-05-21 03:23:00,1734E-3,5C000000,-0724,0858,11883,034.6,045.7,0.482,739.2,01.18,0.508
2014-05-21 03:24:00,1743E-3,5C000000,-0724,0857,12065,034.6,045.7,0.482,739.2,01.18,0.508
2014-05-21 03:25:00,1740E-3,5C000000,-0724,0858,11800,034.7,045.7,0.482,739.2,01.18,0.508
2014-05-21 03:26:00,1754E-3,5C000000,-0724,0858,11906,034.7,045.7,0.482,739.2,01.18,0.508
2014-05-21 03:27:00,1819E-3,5C000000,-0724,0858,11967,034.7,045.7,0.482,739.2,01.18,0.508
2014-05-21 03:28:00,1743E-3,5C000000,-0724,0858,11848,034.7,045.7,0.482,739.2,01.18,0.508
2014-05-21 03:29:00,1860E-3,5C000000,-0724,0858,11948,034.7,045.7,0.482,739.2,01.18,0.508
2014-05-21 03:30:00,1782E-3,5C000000,-0724,0859,11837,034.7,045.7,0.482,739.2,01.18,0.508
2014-05-21 03:31:00,1908E-3,5C000000,-0724,0858,11993,034.7,045.7,0.482,739.2,01.18,0.508
2014-05-21 03:32:00,1713E-3,5C000000,-0724,0857,11798,034.7,045.7,0.482,739.3,01.18,0.508
2014-05-21 03:33:00,1779E-3,5C000000,-0724,0858,11928,034.7,045.7,0.482,739.3,01.18,0.508
2014-05-21 03:34:00,1857E-3,5C000000,-0724,0859,12062,034.7,045.7,0.481,739.3,01.18,0.508
2014-05-21 03:35:00,1762E-3,5C000000,-0724,0858,11835,034.7,045.7,0.481,739.3,01.18,0.508
2014-05-21 03:36:00,1825E-3,5C000000,-0724,0858,12012,034.7,045.7,0.482,739.3,01.18,0.508
2014-05-21 03:37:00,1782E-3,5C000000,-0724,0858,11956,034.7,045.7,0.482,739.3,01.18,0.508
2014-05-21 03:38:00,1747E-3,5C000000,-0724,0858,11964,034.7,045.7,0.482,739.3,01.18,0.508
2014-05-21 03:39:00,1823E-3,5C000000,-0724,0859,11935,034.7,045.7,0.482,739.3,01.18,0.508
2014-05-21 03:40:00,1752E-3,5C000000,-0724,0858,11953,034.7,045.7,0.482,739.3,01.18,0.508
2014-05-21 03:41:00,1800E-3,5C000000,-0724,0858,11849,034.7,045.7,0.482,739.3,01.18,0.508
2014-05-21 03:42:00,1883E-3,5C000000,-0724,0858,12054,034.8,045.7,0.482,739.3,01.18,0.508
2014-05-21 03:43:00,1706E-3,5C000000,-0724,0857,11815,034.7,045.7,0.482,739.3,01.18,0.508
2014-05-21 03:44:00,1679E-3,5C000000,-0724,0857,11939,034.8,045.7,0.482,739.3,01.18,0.508
2014-05-21 03:45:00,1813E-3,5C000000,-0724,0858,11712,034.8,045.7,0.482,739.3,01.18,0.508
2014-05-21 03:46:00,1809E-3,5C000000,-0724,0858,12003,034.8,045.7,0.481,739.3,01.18,0.508
2014-05-21 03:47:00,1771E-3,5C000000,-0724,0858,12081,034.8,045.7,0.481,739.3,01.18,0.508
2014-05-21 03:48:00,1777E-3,5C000000,-0724,0858,11939,034.8,045.7,0.481,739.3,01.18,0.508
2014-05-21 03:49:00,1861E-3,5C000000,-0724,0859,12076,034.8,045.7,0.481,739.3,01.18,0.508
2014-05-21 03:50:00,1896E-3,5C000000,-0724,0858,11902,034.8,045.7,0.482,739.3,01.18,0.508
2014-05-21 03:51:00,1845E-3,5C000000,-0724,0859,11963,034.8,045.7,0.482,739.3,01.18,0.508
2014-05-21 03:52:00,1746E-3,5C000000,-0724,0858,11647,034.8,045.7,0.482,739.3,01.18,0.508
2014-05-21 03:53:00,1737E-3,5C000000,-0724,0857,11769,034.8,045.7,0.482,739.3,01.18,0.508
2014-05-21 03:54:00,1725E-3,5C000000,-0724,0859,11976,034.8,045.7,0.482,739.3,01.18,0.508
2014-05-21 03:55:00,1751E-3,5C000000,-0724,0857,12015,034.8,045.7,0.482,739.2,01.18,0.508
2014-05-21 03:56:00,1844E-3,5C000000,-0724,0857,11864,034.8,045.7,0.482,739.3,01.18,0.508
2014-05-21 03:57:00,1789E-3,5C000000,-0724,0857,11878,034.8,045.7,0.481,739.3,01.18,0.508
2014-05-21 03:58:00,1835E-3,5C000000,-0724,0856,12027,034.8,045.7,0.481,739.3,01.18,0.508
2014-05-21 03:59:00,1791E-3,5C000000,-0724,0857,11969,034.8,045.7,0.481,739.3,01.18,0.508
2014-05-21 04:00:00,1783E-3,5C000000,-0724,0858,11873,034.9,045.7,0.481,739.3,01.18,0.508
2014-05-21 04:01:00,1734E-3,5C000000,-0724,0858,12021,034.8,045.7,0.481,739.2,01.18,0.508
2014-05-21 04:02:00,1746E-3,5C000000,-0724,0857,11876,034.9,045.7,0.482,739.3,01.18,0.508
2014-05-21 04:03:00,1921E-3,5C000000,-0724,0857,11942,034.9,045.7,0.482,739.3,01.18,0.508
2014-05-21 04:04:00,1860E-3,5C000000,-0724,0857,12080,034.9,045.7,0.482,739.3,01.18,0.508
2014-05-21 04:05:00,1779E-3,5C000000,-0724,0857,11845,034.9,045.7,0.482,739.3,01.18,0.508
2014-05-21 04:06:00,1847E-3,5C000000,-0724,0859,11947,034.9,045.7,0.482,739.3,01.18,0.508
2014-05-21 04:07:00,1942E-3,5C000000,-0724,0858,11789,034.9,045.7,0.481,739.3,01.18,0.508
2014-05-21 04:08:00,1719E-3,5C000000,-0724,0858,11882,034.9,045.7,0.481,739.3,01.18,0.508
2014-05-21 04:09:00,1929E-3,5C000000,-0724,0857,11988,034.9,045.7,0.481,739.3,01.18,0.508
2014-05-21 04:10:00,1780E-3,5C000000,-0724,0857,11803,034.9,045.7,0.481,739.3,01.18,0.508
2014-05-21 04:11:00,1940E-3,5C000000,-0724,0857,11880,034.9,045.7,0.481,739.3,01.18,0.508
2014-05-21 04:12:00,1806E-3,5C000000,-0724,0858,11904,034.9,045.7,0.481,739.2,01.18,0.508
2014-05-21 04:13:00,1840E-3,5C000000,-0724,0858,11987,035.0,045.7,0.482,739.3,01.18,0.508
2014-05-21 04:14:00,1752E-3,5C000000,-0724,0858,11936,034.9,045.7,0.482,739.3,01.18,0.508
2014-05-21 04:15:00,1744E-3,5C000000,-0724,0858,11805,034.9,045.7,0.482,739.2,01.18,0.508
2014-05-21 04:16:00,1793E-3,5C000000,-0724,0858,11847,035.0,045.7,0.481,739.3,01.18,0.508
2014-05-21 04:17:00,1854E-3,5C000000,-0724,0857,11994,035.0,045.7,0.481,739.2,01.18,0.508
2014-05-21 04:18:00,1815E-3,5C000000,-0724,0859,11946,035.0,045.7,0.481,739.2,01.18,0.508
2014-05-21 04:19:00,1837E-3,5C000000,-0724,0858,11892,035.0,045.7,0.482,739.3,01.18,0.508
2014-05-21 04:20:00,1702E-3,5C000000,-0724,0858,11819,035.0,045.7,0.481,739.3,01.18,0.508